User: anonymous   Login
Location: Bangkok
(13.7500°N, 100.5170°E)
Time: 00:18:48
(UTC+07:00)
Language:

SPOT 1/Viking Rocket - Orbit

View from above orbital plane
View from above orbital plane
View from above satellite
View from above satellite

Ground track
Ground track

The orbit data is extracted from the following two-line orbital elements,

1 16615U 86019C   17054.30775106  .00000038  00000-0  30687-4 0  9998
2 16615  98.6255 122.3704 0012064  26.3124  15.2836 14.31640882623201
Epoch (UTC): 23 February 2017 07:23:09
Eccentricity: 0.0012064
inclination: 98.6255°
perigee height: 777 km
apogee height: 795 km
right ascension of ascending node: 122.3704°
argument of perigee: 26.3124°
revolutions per day: 14.31640882
mean anomaly at epoch: 15.2836°
orbit number at epoch: 62320

The dashed part of the orbit path shows where the satellite is in the earth's shadow,  

DLR